De Queen, AR

1:07 PM CDT on April 26, 2017 (GMT -0500)
Helms Sevier County

Weather History for KDEQ - December, 2012

Change the Weather History Date:

Thursday, December 6, 2012

  Actual Average Record
Temperature  
Mean Temperature 49 °F 44 °F  
Max Temperature 57 °F 57 °F 79 °F (1998)
Min Temperature 41 °F 32 °F 14 °F (1950)
Degree Days  
Heating Degree Days 16 21  
Month to date heating degree days 37 120  
Since 1 July heating degree days 594 646  
Cooling Degree Days 0 0  
Month to date cooling degree days 14 0  
Year to date cooling degree days 2185 1941  
Moisture  
Dew Point 48 °F    
Average Humidity 87    
Maximum Humidity 96    
Minimum Humidity 77    
Precipitation  
Precipitation 0.00 in 0.12 in 2.75 in (1974)
Month to date precipitation 0.01 0.73  
Year to date precipitation 24.70 45.36  
Snow  
Snow 0.00 in - - ()
Month to date snowfall 0.0  
Since 1 July snowfall 0.0  
Snow Depth 0.00 in    
Sea Level Pressure  
Sea Level Pressure 29.97 in    
Wind  
Wind Speed 3 mph (SE)    
Max Wind Speed 16 mph    
Max Gust Speed 22 mph    
Visibility 7 miles    
Events      
T = Trace of Precipitation, MM = Missing Value Source: NWS Daily Summary

Daily Weather History Graph

Daily Weather History Graph

Search for Another Location

Airport or City:

Trip Planner

Search our weather history database for the weather conditions in past years. The results will help you decide how hot, cold, wet, or windy it might be!

Date:

Astronomy

Dec. 06, 2012 Rise Set
Actual Time 7:09 AM CST 5:08 PM CST
Civil Twilight 6:42 AM CST 5:35 PM CST
Nautical Twilight 6:10 AM CST 6:06 PM CST
Astronomical Twilight 5:40 AM CST 6:37 PM CST
Moon No Moon Rise 12:18 PM CST (12/6)
Length of Visible Light 10h 53m
Length of Day
9h 58m
Waning Gibbous, 49% of the Moon is Illuminated
Dec 6
Waning Gibbous
Dec 13
New
Dec 19
First Quarter
Dec 28
Full
Jan 4
Last Quarter

Hourly Weather History & Observations

Time (CST) Temp. Dew Point Humidity Pressure Visibility Wind Dir Wind Speed Gust Speed Precip Events Conditions
12:53 AM 43.0 °F 41.0 °F 93% 30.06 in 10.0 mi Calm Calm - N/A   Clear
1:53 AM 42.1 °F 39.9 °F 92% 30.06 in 9.0 mi Calm Calm - N/A   Clear
2:18 AM 43.0 °F 41.0 °F 93% 30.06 in 9.0 mi Calm Calm - N/A   Mostly Cloudy
2:50 AM 44.6 °F 42.8 °F 93% 30.04 in 10.0 mi Calm Calm - N/A   Overcast
2:53 AM 45.0 °F 43.0 °F 93% 30.04 in 10.0 mi Calm Calm - N/A   Overcast
3:53 AM 48.0 °F 46.0 °F 93% 30.02 in 10.0 mi Calm Calm - N/A   Overcast
4:53 AM 50.0 °F 48.0 °F 93% 30.01 in 7.0 mi Calm Calm - N/A   Overcast
5:14 AM 50.0 °F 48.0 °F 93% 30.01 in 8.0 mi Calm Calm - N/A   Overcast
5:53 AM 52.0 °F 48.0 °F 86% 30.01 in 7.0 mi SE 3.5 mph - N/A   Overcast
6:53 AM 52.0 °F 48.0 °F 86% 30.01 in 7.0 mi SE 3.5 mph - N/A   Overcast
7:53 AM 52.0 °F 48.0 °F 86% 30.01 in 6.0 mi SSE 4.6 mph - N/A   Overcast
8:53 AM 52.0 °F 48.0 °F 86% 30.02 in 5.0 mi SSE 4.6 mph - N/A   Overcast
9:53 AM 52.0 °F 48.0 °F 86% 30.02 in 3.0 mi South 3.5 mph - N/A   Overcast
10:50 AM 53.6 °F 48.2 °F 82% 30.02 in 4.0 mi South 5.8 mph - N/A   Haze
10:53 AM 53.1 °F 48.9 °F 86% 30.02 in 5.0 mi SSW 5.8 mph - N/A   Overcast
11:53 AM 54.0 °F 48.9 °F 83% 29.99 in 6.0 mi South 5.8 mph - N/A   Haze
12:53 PM 54.0 °F 48.9 °F 83% 29.95 in 5.0 mi South 3.5 mph - N/A   Haze
1:43 PM 55.9 °F 50.0 °F 80% 29.93 in 7.0 mi East 5.8 mph - N/A   Overcast
1:53 PM 55.9 °F 50.0 °F 80% 29.92 in 7.0 mi SSE 4.6 mph - N/A   Overcast
2:53 PM 55.9 °F 50.0 °F 80% 29.90 in 7.0 mi SE 5.8 mph - N/A   Overcast
3:53 PM 55.9 °F 50.0 °F 80% 29.90 in 7.0 mi SE 6.9 mph - N/A   Overcast
4:53 PM 55.9 °F 50.0 °F 80% 29.89 in 6.0 mi ESE 4.6 mph - N/A   Haze
5:53 PM 55.9 °F 50.0 °F 80% 29.89 in 7.0 mi ESE 5.8 mph - N/A   Overcast
6:53 PM 55.9 °F 50.0 °F 80% 29.90 in 7.0 mi ESE 3.5 mph - N/A   Overcast
7:53 PM 55.9 °F 50.0 °F 80% 29.90 in 8.0 mi SE 8.1 mph 21.9 mph N/A   Overcast
8:53 PM 57.0 °F 50.0 °F 77% 29.91 in 8.0 mi SE 3.5 mph - N/A   Overcast
9:53 PM 55.9 °F 50.0 °F 80% 29.91 in 8.0 mi Calm Calm - N/A   Mostly Cloudy
10:53 PM 54.0 °F 50.0 °F 86% 29.91 in 7.0 mi Calm Calm - N/A   Overcast
11:53 PM 54.0 °F 50.0 °F 86% 29.90 in 7.0 mi ENE 3.5 mph - N/A   Overcast